Location: Praha
(50.0875°N, 14.4213°E)
Time: 06:11:19
(UTC+02:00)

ISS - Pass Details

Date: 23 May 2026
Orbit: 413 x 423 km, 51.6° (Epoch: 5 June)

Event Time Altitude Azimuth Distance (km) Brightness Sun altitude
Rises 21:51:00 0° 286° (WNW) 2,352 1.2 -7.9°
Reaches altitude 10° 21:53:17 10° 273° (W) 1,487 -0.2 -8.2°
Maximum altitude 21:56:07 26° 215° (SW) 854 -2.3 -8.5°
Enters shadow 21:58:46 11° 158° (SSE) 1,419 -1.7 -8.8°
